Location: Unspecified
(0.0000°N, 0.0000°E)
Time: 06:44:00
(UTC+01:00)

Cosmos 1263 Rocket - Visible Passes

Search period start: 23 November 2014 00:00
Search period end: 03 December 2014 00:00
Orbit: 314 x 538 km, 82.9° (Epoch: 21 November)

Date Brightness Start Highest point End Pass type
(mag) Time Alt. Az. Time Alt. Az. Time Alt. Az.
23 Nov 2.2 05:32:39 10° N 05:35:52 60° E 05:38:51 10° SSE visible
24 Nov 4.9 04:51:18 10° ENE 04:52:42 12° E 04:54:04 10° ESE visible
25 Nov 2.0 05:42:23 34° WNW 05:43:05 40° W 05:45:52 10° SSW visible
26 Nov 3.6 05:00:20 28° ESE 05:00:20 28° ESE 05:02:23 10° SSE visible
27 Nov 3.9 05:51:16 11° SW 05:51:16 11° SW 05:51:28 10° SW visible
28 Nov 4.3 05:08:47 13° S 05:08:47 13° S 05:09:07 10° S visible
